Sample Number (10 samples per second),UNIX Timestamp (Milliseconds since 1970-01-01),Barometric (psi),IAT (c),Throttle (%),STFT (%),LTFT (%),Timing (o),Speed (km/h),RPM (rpm),O2 (l),Coolant (c),Boost (psi),Boost ECU (psi),Manifold (psi),Manifold ECU (psi),Fuel (psi),Fuel ECU (psi),O2 current (ua),Avg Boost (psi)
0,1629079815759,13.389608,46.0,13.73,0.0,0.0,2.0,0.0,788.75,1.2,95.0,13.243243,13.243243,6.8864865,6.8864865,878.0,878.0,0.0,0.0
3145,1629080256046,13.389608,44.0,26.67,2.34,2.34,8.0,32.0,1540.25,1.01,105.0,15.275676,15.254054,14.92973,14.92973,2412.0,2390.0,0.0,1.4486487
3146,1629080256188,13.389608,44.0,27.06,3.91,2.34,8.0,32.0,1544.25,1.01,105.0,15.470271,15.448649,15.654055,15.643244,2406.0,2384.0,0.0,2.1621623
3147,1629080256326,13.389608,44.0,29.8,3.12,2.34,7.0,33.0,1576.75,1.0,105.0,15.502703,15.481081,15.7405405,15.71892,2543.0,2518.0,0.0,2.5513513
3148,1629080256467,13.389608,44.0,34.12,3.12,2.34,6.0,34.0,1595.5,0.96,105.0,15.805406,15.772973,15.978378,15.945947,2566.0,2551.0,0.0,2.8324325
3149,1629080256609,13.389608,44.0,37.25,0.78,2.34,4.5,35.0,1632.25,0.96,105.0,15.870271,15.837838,15.85946,15.816216,2604.0,2599.0,0.0,2.7891893
3150,1629080256747,13.389608,44.0,38.43,0.78,2.34,4.5,35.0,1662.5,0.98,105.0,15.697298,15.643244,16.378378,16.324326,2588.0,2578.0,0.0,3.0270271
3151,1629080256886,13.389608,44.0,56.86,0.78,2.34,5.0,36.0,1704.25,0.99,105.0,15.772973,15.762162,16.78919,16.713514,2609.0,2597.0,0.0,3.372973
3152,1629080257030,13.389608,44.0,67.06,0.78,2.34,5.0,37.0,1751.5,0.98,105.0,16.335136,16.237839,16.908108,16.810812,2619.0,2608.0,0.0,3.6216216
3153,1629080257166,13.389608,44.0,72.16,0.0,2.34,4.0,38.0,1795.5,0.99,105.0,16.918919,16.843245,17.567568,17.437838,2601.0,2589.0,0.0,4.3891892
3154,1629080257309,13.389608,44.0,73.73,0.0,2.34,4.0,39.0,1821.0,0.99,105.0,17.275677,17.113514,18.12973,17.945946,2692.0,2676.0,0.0,4.8972974
3155,1629080257447,13.389608,43.0,74.51,0.78,2.34,3.0,40.0,1874.75,1.0,105.0,17.902702,17.621622,19.18919,18.94054,2725.0,2705.0,0.0,5.7081084
3156,1629080257586,13.389608,43.0,76.47,0.0,2.34,3.5,41.0,1920.25,0.99,105.0,18.702703,18.389189,19.772974,19.45946,2758.0,2732.0,0.0,6.3135138
3157,1629080257726,13.389608,43.0,78.04,0.78,2.34,2.5,41.0,1951.25,1.0,105.0,19.027027,18.54054,20.291893,19.870272,2827.0,2785.0,0.0,6.8756757
3158,1629080257867,13.389608,43.0,80.39,0.0,2.34,2.0,43.0,2033.25,0.98,105.0,20.24865,19.71892,19.416216,18.897297,2769.0,2723.0,0.0,7.783784
3159,1629080258010,13.389608,43.0,81.57,0.0,2.34,0.5,44.0,2070.75,0.99,105.0,21.31892,20.65946,21.978378,21.297298,2833.0,2778.0,0.0,8.832433
3160,1629080258151,13.389608,43.0,81.57,0.0,2.34,-0.5,45.0,2129.5,0.99,105.0,22.335136,21.491892,23.340542,22.475676,2838.0,2772.0,0.0,10.140541
3161,1629080258287,13.389608,43.0,81.96,0.0,2.34,-1.5,46.0,2175.0,1.0,105.0,24.270271,23.156757,24.508108,23.45946,2839.0,2744.0,0.0,11.513514
3162,1629080258430,13.389608,43.0,81.96,0.0,3.12,-2.5,48.0,2268.25,1.01,105.0,25.654055,24.237839,26.832434,25.167568,2898.0,2789.0,0.0,13.048649
3163,1629080258569,13.389608,43.0,82.75,0.0,3.12,-2.5,49.0,2330.0,1.02,105.0,28.108109,26.583784,28.281082,26.627028,2930.0,2798.0,12.9,14.594595
3164,1629080258710,13.389608,43.0,83.14,0.78,3.12,-3.5,50.0,2379.5,1.02,105.0,29.491892,27.275677,30.216217,28.01081,2956.0,2786.0,12.9,16.983784
3165,1629080258847,13.389608,43.0,83.92,0.78,3.12,-4.5,53.0,2487.75,1.0,105.0,32.324326,29.643244,32.886486,30.324326,2995.0,2802.0,25.8,19.286488
3166,1629080258989,13.389608,43.0,83.92,0.78,3.12,-5.0,54.0,2558.5,1.01,105.0,33.610813,31.675676,34.216217,32.10811,2998.0,2791.0,51.6,19.481081
3167,1629080259128,13.389608,43.0,84.31,0.78,3.12,-5.5,57.0,2658.25,1.01,105.0,32.983784,30.464865,32.875675,30.194595,3035.0,2771.0,77.399994,19.913513
3168,1629080259270,13.389608,43.0,85.1,1.56,3.12,-5.5,58.0,2738.25,1.01,105.0,35.18919,33.113514,34.594597,32.054054,3052.0,2777.0,116.1,21.275677
3169,1629080259409,13.389608,43.0,85.88,1.56,3.12,-4.5,60.0,2856.75,1.0,105.0,33.513515,30.313515,33.21081,29.870272,2997.0,2656.0,141.9,20.691893
3170,1629080259551,13.389608,43.0,85.88,1.56,3.12,-4.0,62.0,2929.25,1.01,105.0,34.897297,31.935137,34.227028,31.945948,3096.0,2758.0,167.7,21.31892
3171,1629080259687,13.389608,43.0,86.67,2.34,3.12,-5.0,64.0,3035.75,0.99,105.0,35.71892,32.81081,35.156757,32.454056,3125.0,2788.0,180.59999,22.021622
3172,1629080259829,13.389608,43.0,86.67,1.56,3.12,-5.0,66.0,3125.5,0.99,105.0,34.443245,31.18919,36.78919,33.58919,3141.0,2766.0,193.5,22.140541
3173,1629080259969,13.389608,43.0,86.67,3.12,3.12,-4.0,68.0,3223.75,0.96,105.0,34.864864,31.85946,35.74054,33.351353,3144.0,2746.0,206.4,22.605406
3174,1629080260108,13.389608,43.0,86.67,3.12,3.12,-5.5,70.0,3313.0,0.99,105.0,36.8,33.72973,35.621624,33.07027,3144.0,2781.0,206.4,22.464865
3175,1629080260250,13.389608,43.0,86.67,3.12,3.12,-5.0,71.0,3347.0,1.0,105.0,34.735134,31.264866,35.72973,32.38919,3176.0,2763.0,219.29999,22.291893
3176,1629080260386,13.389608,42.0,86.67,3.12,3.12,-4.0,74.0,3469.75,1.0,105.0,37.264866,34.745945,36.681084,34.162163,3098.0,2738.0,219.29999,23.048649
3177,1629080260529,13.389608,42.0,86.67,3.12,3.12,-4.5,75.0,3539.0,0.97,105.0,35.632435,32.83243,35.89189,32.583786,3158.0,2735.0,232.2,22.67027
3178,1629080260669,13.389608,42.0,86.67,0.78,3.12,-5.0,78.0,3646.25,0.98,105.0,36.216217,33.2973,36.659462,33.45946,3184.0,2768.0,232.2,23.264866
3179,1629080260808,13.389608,42.0,86.67,0.78,3.12,-5.0,79.0,3699.0,0.97,105.0,36.62703,33.913513,37.524326,35.254055,3114.0,2772.0,232.2,23.405405
3180,1629080260946,13.389608,42.0,86.67,-0.78,3.12,-5.5,82.0,3816.25,0.97,105.0,36.4,32.735134,36.61622,33.113514,3189.0,2763.0,245.09999,22.78919
3181,1629080261086,13.389608,42.0,86.67,0.0,3.12,-5.5,83.0,3881.75,0.99,105.0,36.02162,32.843243,36.681084,33.34054,3168.0,2753.0,245.09999,23.135136
3182,1629080261227,13.389608,42.0,86.67,-1.56,3.12,-5.0,85.0,3997.75,0.96,105.0,37.535137,35.502705,36.281082,34.10811,3177.0,2775.0,245.09999,23.394596
3183,1629080261367,13.389608,42.0,86.67,-2.34,3.12,-4.5,87.0,4072.25,0.99,105.0,37.481083,35.351353,35.98919,32.572975,3208.0,2778.0,258.0,22.800001
3184,1629080261510,13.389608,42.0,86.67,-1.56,3.12,-4.5,88.0,4130.25,1.0,100.0,36.464867,32.962162,36.24865,32.745945,3176.0,2744.0,258.0,22.443243
3185,1629080261647,13.389608,42.0,86.67,-0.78,3.12,-4.0,90.0,4240.5,1.01,100.0,38.50811,33.85946,36.14054,32.63784,3195.0,2753.0,258.0,22.4
3186,1629080261790,13.389608,42.0,86.67,0.0,3.12,-3.5,92.0,4318.75,1.01,100.0,37.87027,34.36757,36.886486,33.383785,3161.0,2699.0,270.9,22.335136
3187,1629080261927,13.389608,42.0,86.67,0.0,3.12,-4.0,94.0,4419.0,1.04,100.0,34.097298,30.443245,32.691895,29.221622,3282.0,2785.0,270.9,19.924324
3188,1629080262066,13.389608,43.0,86.67,2.34,3.12,-2.5,95.0,4515.0,1.04,100.0,32.38919,28.994595,21.448648,19.71892,3184.0,2857.0,193.5,4.4972973
3189,1629080262207,13.389608,43.0,16.47,-2.34,3.12,12.5,97.0,4217.5,0.87,100.0,22.983784,20.854055,7.156757,7.156757,2810.0,2836.0,0.0,0.0
3190,1629080262350,13.389608,43.0,15.69,-3.12,3.12,6.0,96.0,4408.75,0.9,100.0,19.416216,18.12973,6.0216217,6.0216217,2867.0,2867.0,0.0,0.0
3626,1629080323387,13.389608,46.0,23.14,-1.56,2.34,16.0,22.0,1625.5,1.0,106.0,13.448649,13.448649,12.713513,12.713513,2108.0,2121.0,0.0,0.0
3627,1629080323529,13.389608,46.0,24.71,-2.34,2.34,15.0,23.0,1667.75,1.02,106.0,13.556757,13.556757,12.691893,12.789189,2226.0,2231.0,0.0,0.0